Regional Weather Roundup
Issued by NWS Portland, ME

Home | Current Version | Previous Version | Text Only | Print | Product List | Glossary On
Versions: 1 2 3 4 5 6 7 8 9 10 11 12 13 14 15 16 17 18 19 20 21 22 23 24 25 26 27 28 29 30 31 32 33 34 35 36 37 38 39 40 41 42 43 44 45 46 47 48 49 50
000
ASUS41 KGYX 231110
RWRGYX
WEATHER ROUNDUP FOR MAINE AND NEW HAMPSHIRE
NATIONAL WEATHER SERVICE GRAY ME
700 AM EDT WED MAY 23 2018

MEZ002-005-006-010-012-015-018-020-021-024-026-027-029-231200-
MAINE

CITY           SKY/WX    TMP DP  RH WIND       PRES   REMARKS
PORTLAND       FAIR      57  53  86 W5        29.85S
SANFORD        CLOUDY    55  52  89 CALM      29.87R
BAR HARBOR     PTSUNNY   51  48  89 S6        29.85S
WISCASSET      FAIR      54  52  93 CALM      29.85S
ROCKLAND       PTSUNNY   53  50  89 SW3       29.84S
FRYEBURG       FAIR      57  53  86 W3        29.86R
LEWISTONAUBURN FAIR      55  52  89 CALM      29.85S
AUGUSTA        FAIR      56  51  84 CALM      29.85R
WATERVILLE     FAIR      55  51  86 CALM      29.83R
BANGOR         PTSUNNY   54  50  86 S5        29.84S
GREENVILLE       N/A     51  51 100 CALM      29.82R
MILLINOCKET    FAIR      55  52  89 CALM      29.83R
HOULTON        CLOUDY    54  52  93 SW8       29.79S
PRESQUE ISLE   FAIR      53  47  79 S3        29.80R
FRENCHVILLE    CLOUDY    56  50  80 NW5       29.79R
CARIBOU        PTSUNNY   55  49  80 CALM      29.78S
$$

NHZ002-005-008-009-011-012-014-231200-
NEW HAMPSHIRE

CITY           SKY/WX    TMP DP  RH WIND       PRES   REMARKS
PORTSMOUTH     PTSUNNY   56  53  91 SW6       29.84F
ROCHESTER      CLOUDY    56  54  93 CALM      29.85S
NASHUA         FAIR      56  55  97 CALM      29.88R
MANCHESTER     PTSUNNY   59  53  80 W3        29.86S
CONCORD        CLOUDY    56  52  86 CALM      29.88R
LACONIA        FAIR      56  53  90 SW7       29.88R
PLYMOUTH       PTSUNNY   55  53  91 CALM      29.88R
BERLIN         CLOUDY    55  53  93 CALM      29.88R
WHITEFIELD     CLOUDY    54  53  97 CALM      29.90R FOG
JAFFREY        CLOUDY    56  56 100 VRB3      29.89R
KEENE          CLOUDY    56  54  93 CALM      29.90R
LEBANON        CLOUDY    55  51  86 CALM      29.90R
MT WASHINGTON  PTSUNNY   41  37  87 N20G28      N/A
$$

VTZ005-007-008-231200-
VERMONT

CITY           SKY/WX    TMP DP  RH WIND       PRES   REMARKS
ST JOHNSBURY     N/A     54  54 100 MISG      29.88R
MONTPELIER     FAIR      54  54 100 NW5       29.94R
BURLINGTON     FAIR      57  54  89 S3        29.92R
$$

MAZ007-012-024-CTZ003-RIZ002-NYZ038-NYZ072-231200-
SOUTHERN NEW ENGLAND AND NY

CITY           SKY/WX    TMP DP  RH WIND       PRES   REMARKS
BOSTON         PTSUNNY   59  55  87 SW5       29.87S
WORCESTER      CLOUDY    54  53  97 W12       29.88S
NANTUCKET      LGT RAIN  54  54 100 E3        29.87F FOG
PROVIDENCE     PTSUNNY   58  55  90 SW5       29.89R
HARTFORD       CLOUDY    56  55  97 S6        29.90R FOG
ALBANY         PTSUNNY   60  54  80 NW5       29.93R
NEW YORK CITY  PTSUNNY   62  59  90 CALM      29.90R
$$

ANZ081-ANZ082-ANZ150-NHZ014-MEZ023>029-231200-
COASTAL MARINE OBSERVATIONS

STATION/POSITION TIME  TEMP    WIND        PRES    WAVE
                       AIR SEA DIR/SP/G            HT/PER
                 (UTC) (F)     (DEG/KT/KT) (MB)    (FT/S)
MOUNT DESERT ROC 1100   48     180/  9/  9 1011.2F
MATINICUS ROCK   1100   49     210/ 11/ 12 1010.5R
ISLE OF SHOALS   1100   55     230/ 11/ 11 1010.6F
JEFFREYS LEDGE   1036      52                N/A     2/ 8
CASHES LEDGE BUO 1050   51 50              1010.9R   2/ 4
$$

.............KEY..............
   WCI - WIND CHILL
   TC  - TEMPERATURE IN CELSIUS
   VSB - VISIBILITY IN MILES
   HX  - HEAT INDEX
   FAIR- INDICATES FEW OR NO CLOUDS BELOW 12,000 FT, WITH NO
         SIGNIFICANT WEATHER AND/OR OBSTRUCTIONS TO VISIBILITY.





USA.gov is the U.S. government's official web portal to all federal, state and local government web resources and services.